| time (UTC) | temp F | wind direction | speed MPH | gust MPH | rain 1hr in | rain 24hr in | rain mn in | humidity % | barometer mb |
| 20260901040525 | 58 | 159 | 0.0 | 0.0 | 0.00 | 0.00 | 0.00 | 92 | 1017.3 |
| 20260901040025 | 58 | 159 | 0.0 | 0.0 | 0.00 | 0.00 | 0.00 | 92 | 1017.4 |
| 20260901035526 | 58 | 159 | 0.0 | 1.0 | 0.00 | 0.00 | 0.00 | 92 | 1017.4 |
| 20260901035024 | 58 | 159 | 0.0 | 2.0 | 0.00 | 0.00 | 0.00 | 92 | 1017.4 |
| 20260901034525 | 58 | 159 | 1.0 | 2.0 | 0.00 | 0.00 | 0.00 | 92 | 1017.4 |
| 20260901034025 | 58 | 159 | 1.0 | 2.0 | 0.00 | 0.00 | 0.00 | 92 | 1017.4 |
| 20260901033524 | 58 | 159 | 1.0 | 2.0 | 0.00 | 0.00 | 0.00 | 92 | 1017.5 |
| 20260901033034 | 58 | 159 | 0.0 | 2.0 | 0.00 | 0.00 | 0.00 | 91 | 1017.5 |
| 20260901032523 | 58 | 159 | 0.0 | 2.0 | 0.00 | 0.00 | 0.00 | 91 | 1017.5 |
| 20260901032023 | 58 | 159 | 1.0 | 2.0 | 0.00 | 0.00 | 0.00 | 91 | 1017.5 |
| 20260901031532 | 58 | 159 | 0.0 | 2.0 | 0.00 | 0.00 | 0.00 | 91 | 1017.6 |
| 20260901031022 | 58 | 159 | 1.0 | 2.0 | 0.00 | 0.00 | 0.00 | 91 | 1017.5 |
| 20260901030522 | 58 | 159 | 1.0 | 2.0 | 0.00 | 0.00 | 0.00 | 91 | 1017.6 |
| 20260901030022 | 58 | 159 | 1.0 | 2.0 | 0.00 | 0.00 | 0.00 | 91 | 1017.5 |
| 20260901025522 | 58 | 159 | 1.0 | 2.0 | 0.00 | 0.00 | 0.00 | 91 | 1017.6 |
| 20260901025024 | 58 | 159 | 1.0 | 2.0 | 0.00 | 0.00 | 0.00 | 91 | 1017.7 |
| 20260901024522 | 58 | 159 | 1.0 | 2.0 | 0.00 | 0.00 | 0.00 | 90 | 1017.7 |
| 20260901024022 | 58 | 159 | 1.0 | 2.0 | 0.00 | 0.00 | 0.00 | 90 | 1017.7 |
| 20260901023521 | 58 | 159 | 1.0 | 2.0 | 0.00 | 0.00 | 0.00 | 90 | 1017.7 |
| 20260901023022 | 58 | 159 | 1.0 | 2.0 | 0.00 | 0.00 | 0.00 | 89 | 1017.7 |
| 20260901022520 | 58 | 159 | 1.0 | 2.0 | 0.00 | 0.00 | 0.00 | 89 | 1017.5 |
| 20260901022020 | 58 | 159 | 1.0 | 2.0 | 0.00 | 0.00 | 0.00 | 88 | 1017.7 |
| 20260901021541 | 58 | 159 | 1.0 | 2.0 | 0.00 | 0.00 | 0.00 | 89 | 1017.7 |
| 20260901021020 | 58 | 159 | 0.0 | 0.0 | 0.00 | 0.00 | 0.00 | 88 | 1017.6 |
| 20260901020523 | 59 | 159 | 0.0 | 0.0 | 0.00 | 0.00 | 0.00 | 88 | 1017.7 |
| 20260901020019 | 59 | 159 | 0.0 | 0.0 | 0.00 | 0.00 | 0.00 | 88 | 1017.6 |
| 20260901015519 | 59 | 159 | 0.0 | 0.0 | 0.00 | 0.00 | 0.00 | 88 | 1017.6 |
| 20260901015119 | 59 | 159 | 0.0 | 0.0 | 0.00 | 0.00 | 0.00 | 88 | 1017.7 |
| 20260901014520 | 59 | 159 | 0.0 | 0.0 | 0.00 | 0.00 | 0.00 | 88 | 1017.5 |
| 20260901014019 | 59 | 159 | 0.0 | 0.0 | 0.00 | 0.00 | 0.00 | 87 | 1017.6 |
| 20260901013518 | 59 | 159 | 0.0 | 0.0 | 0.00 | 0.00 | 0.00 | 87 | 1017.5 |
| 20260901013027 | 59 | 159 | 0.0 | 1.0 | 0.00 | 0.00 | 0.00 | 86 | 1017.5 |
| 20260901012517 | 60 | 159 | 0.0 | 2.0 | 0.00 | 0.00 | 0.00 | 86 | 1017.4 |
| 20260901012019 | 60 | 159 | 0.0 | 2.0 | 0.00 | 0.00 | 0.00 | 86 | 1017.4 |
| 20260901011520 | 60 | 159 | 0.0 | 2.0 | 0.00 | 0.00 | 0.00 | 86 | 1017.5 |
| 20260901011117 | 60 | 159 | 0.0 | 2.0 | 0.00 | 0.00 | 0.00 | 85 | 1017.5 |
| 20260901010516 | 60 | 159 | 1.0 | 2.0 | 0.00 | 0.00 | 0.00 | 85 | 1017.5 |
| 20260901010037 | 61 | 159 | 0.0 | 2.0 | 0.00 | 0.00 | 0.00 | 85 | 1017.6 |
| 20260901005517 | 61 | 159 | 0.0 | 2.0 | 0.00 | 0.00 | 0.00 | 84 | 1017.5 |
| 20260901005015 | 61 | 159 | 1.0 | 2.0 | 0.00 | 0.00 | 0.00 | 84 | 1017.5 |
| 20260901004517 | 61 | 159 | 1.0 | 2.0 | 0.00 | 0.00 | 0.00 | 83 | 1017.4 |
| 20260901004015 | 61 | 159 | 0.0 | 2.0 | 0.00 | 0.00 | 0.00 | 83 | 1017.5 |
| 20260901003515 | 61 | 159 | 0.0 | 3.0 | 0.00 | 0.00 | 0.00 | 83 | 1017.5 |
| 20260901003021 | 61 | 159 | 0.0 | 3.0 | 0.00 | 0.00 | 0.00 | 83 | 1017.4 |
| 20260901002515 | 61 | 158 | 0.0 | 4.0 | 0.00 | 0.00 | 0.00 | 82 | 1017.4 |
| 20260901002015 | 61 | 153 | 1.0 | 4.0 | 0.00 | 0.00 | 0.00 | 82 | 1017.3 |
| 20260901001516 | 61 | 234 | 1.0 | 4.0 | 0.00 | 0.00 | 0.00 | 80 | 1017.3 |
| 20260901001014 | 62 | 292 | 1.0 | 6.0 | 0.00 | 0.00 | 0.00 | 79 | 1017.3 |
| 20260901000514 | 62 | 197 | 1.0 | 6.0 | 0.00 | 0.00 | 0.00 | 79 | 1017.3 |
| 20260901000014 | 62 | 218 | 1.0 | 3.0 | 0.00 | 0.00 | 0.00 | 78 | 1017.2 |
| 20260831235518 | 62 | 223 | 0.0 | 6.0 | 0.00 | 0.00 | 0.00 | 77 | 1017.2 |
| 20260831235017 | 62 | 277 | 0.0 | 6.0 | 0.00 | 0.00 | 0.00 | 76 | 1017.2 |
| 20260831234516 | 62 | 215 | 1.0 | 4.0 | 0.00 | 0.00 | 0.00 | 76 | 1017.2 |
| 20260831234014 | 63 | 211 | 0.0 | 3.0 | 0.00 | 0.00 | 0.00 | 75 | 1017.2 |
| 20260831233513 | 63 | 208 | 1.0 | 3.0 | 0.00 | 0.00 | 0.00 | 74 | 1017.3 |
| 20260831233013 | 63 | 229 | 0.0 | 3.0 | 0.00 | 0.00 | 0.00 | 74 | 1017.4 |
| 20260831232518 | 63 | 260 | 0.0 | 4.0 | 0.00 | 0.00 | 0.00 | 74 | 1017.4 |
| 20260831232015 | 63 | 261 | 1.0 | 4.0 | 0.00 | 0.00 | 0.00 | 74 | 1017.4 |
| 20260831231513 | 63 | 200 | 0.0 | 4.0 | 0.00 | 0.00 | 0.00 | 73 | 1017.4 |
| 20260831231013 | 63 | 188 | 1.0 | 7.0 | 0.00 | 0.00 | 0.00 | 73 | 1017.3 |
| 20260831230513 | 64 | 176 | 2.0 | 7.0 | 0.00 | 0.00 | 0.00 | 73 | 1017.3 |
| 20260831230013 | 64 | 190 | 1.0 | 6.0 | 0.00 | 0.00 | 0.00 | 72 | 1017.3 |
| 20260831225512 | 64 | 209 | 1.0 | 9.0 | 0.00 | 0.00 | 0.00 | 72 | 1017.2 |
| 20260831225012 | 64 | 198 | 2.0 | 9.0 | 0.00 | 0.00 | 0.00 | 72 | 1017.2 |
| 20260831224512 | 64 | 190 | 1.0 | 8.0 | 0.00 | 0.00 | 0.00 | 71 | 1017.2 |
| 20260831224012 | 64 | 79 | 3.0 | 7.0 | 0.00 | 0.00 | 0.00 | 71 | 1017.3 |
| 20260831223511 | 64 | 258 | 2.0 | 7.0 | 0.00 | 0.00 | 0.00 | 71 | 1017.2 |
| 20260831223017 | 64 | 192 | 2.0 | 7.0 | 0.00 | 0.00 | 0.00 | 71 | 1017.3 |
| 20260831222512 | 65 | 148 | 2.0 | 8.0 | 0.00 | 0.00 | 0.00 | 71 | 1017.4 |
| 20260831222011 | 65 | 210 | 3.0 | 9.0 | 0.00 | 0.00 | 0.00 | 71 | 1017.4 |
| 20260831221514 | 65 | 207 | 3.0 | 9.0 | 0.00 | 0.00 | 0.00 | 71 | 1017.4 |
| 20260831221011 | 65 | 175 | 3.0 | 9.0 | 0.00 | 0.00 | 0.00 | 70 | 1017.2 |
| 20260831220510 | 65 | 202 | 4.0 | 10.0 | 0.00 | 0.00 | 0.00 | 70 | 1017.3 |
| 20260831220010 | 65 | 216 | 3.0 | 12.0 | 0.00 | 0.00 | 0.00 | 69 | 1017.4 |
| 20260831215514 | 65 | 180 | 3.0 | 12.0 | 0.00 | 0.00 | 0.00 | 69 | 1017.4 |
| 20260831215016 | 66 | 206 | 5.0 | 10.0 | 0.00 | 0.00 | 0.00 | 69 | 1017.4 |
| 20260831214511 | 66 | 205 | 4.0 | 12.0 | 0.00 | 0.00 | 0.00 | 68 | 1017.3 |
| 20260831214010 | 66 | 250 | 4.0 | 12.0 | 0.00 | 0.00 | 0.00 | 67 | 1017.4 |
| 20260831213509 | 66 | 235 | 3.0 | 9.0 | 0.00 | 0.00 | 0.00 | 64 | 1017.3 |
| 20260831213009 | 66 | 193 | 4.0 | 11.0 | 0.00 | 0.00 | 0.00 | 61 | 1017.5 |
| 20260831212509 | 66 | 182 | 4.0 | 10.0 | 0.00 | 0.00 | 0.00 | 60 | 1017.4 |
| 20260831212009 | 66 | 216 | 3.0 | 10.0 | 0.00 | 0.00 | 0.00 | 58 | 1017.5 |
| 20260831211510 | 66 | 149 | 3.0 | 10.0 | 0.00 | 0.00 | 0.00 | 57 | 1017.5 |
| 20260831211010 | 67 | 222 | 4.0 | 9.0 | 0.00 | 0.00 | 0.00 | 58 | 1017.5 |
| 20260831210508 | 66 | 188 | 4.0 | 9.0 | 0.00 | 0.00 | 0.00 | 56 | 1017.6 |
| 20260831210013 | 66 | 183 | 3.0 | 9.0 | 0.00 | 0.00 | 0.00 | 54 | 1017.6 |
| 20260831205609 | 66 | 228 | 3.0 | 13.0 | 0.00 | 0.00 | 0.00 | 57 | 1017.5 |
| 20260831205008 | 67 | 207 | 5.0 | 13.0 | 0.00 | 0.00 | 0.00 | 58 | 1017.5 |
| 20260831204509 | 67 | 169 | 4.0 | 12.0 | 0.00 | 0.00 | 0.00 | 62 | 1017.7 |
| 20260831204008 | 67 | 169 | 4.0 | 11.0 | 0.00 | 0.00 | 0.00 | 63 | 1017.6 |
| 20260831203506 | 67 | 154 | 5.0 | 14.0 | 0.00 | 0.00 | 0.00 | 61 | 1017.6 |
| 20260831203010 | 67 | 210 | 5.0 | 14.0 | 0.00 | 0.00 | 0.00 | 62 | 1017.6 |
| 20260831202506 | 68 | 235 | 6.0 | 13.0 | 0.00 | 0.00 | 0.00 | 60 | 1017.6 |
| 20260831202006 | 68 | 142 | 4.0 | 12.0 | 0.00 | 0.00 | 0.00 | 61 | 1017.6 |
| 20260831201507 | 68 | 180 | 4.0 | 11.0 | 0.00 | 0.00 | 0.00 | 59 | 1017.7 |
| 20260831201106 | 68 | 217 | 5.0 | 11.0 | 0.00 | 0.00 | 0.00 | 58 | 1017.7 |
| 20260831200505 | 68 | 200 | 5.0 | 11.0 | 0.00 | 0.00 | 0.00 | 55 | 1017.6 |
| 20260831200014 | 68 | 188 | 3.0 | 11.0 | 0.00 | 0.00 | 0.00 | 55 | 1017.7 |
| 20260831195505 | 69 | 205 | 3.0 | 12.0 | 0.00 | 0.00 | 0.00 | 56 | 1017.6 |
| 20260831195004 | 69 | 132 | 3.0 | 12.0 | 0.00 | 0.00 | 0.00 | 55 | 1017.6 |
| 20260831194506 | 69 | 163 | 2.0 | 9.0 | 0.00 | 0.00 | 0.00 | 57 | 1017.8 |
| 20260831194005 | 69 | 157 | 3.0 | 14.0 | 0.00 | 0.00 | 0.00 | 56 | 1017.9 |
| 20260831193504 | 69 | 151 | 3.0 | 14.0 | 0.00 | 0.00 | 0.00 | 57 | 1017.8 |
| 20260831193009 | 70 | 184 | 4.0 | 12.0 | 0.00 | 0.00 | 0.00 | 55 | 1017.9 |
| 20260831192503 | 70 | 185 | 4.0 | 10.0 | 0.00 | 0.00 | 0.00 | 53 | 1017.8 |
| 20260831192003 | 70 | 267 | 2.0 | 13.0 | 0.00 | 0.00 | 0.00 | 54 | 1018.0 |
| 20260831191503 | 70 | 260 | 4.0 | 13.0 | 0.00 | 0.00 | 0.00 | 52 | 1017.9 |
| 20260831191003 | 70 | 177 | 4.0 | 10.0 | 0.00 | 0.00 | 0.00 | 50 | 1017.8 |
| 20260831190504 | 70 | 243 | 4.0 | 11.0 | 0.00 | 0.00 | 0.00 | 50 | 1017.7 |
| 20260831190003 | 70 | 165 | 5.0 | 11.0 | 0.00 | 0.00 | 0.00 | 48 | 1017.9 |
| 20260831185503 | 70 | 171 | 5.0 | 11.0 | 0.00 | 0.00 | 0.00 | 48 | 1018.0 |
| 20260831185003 | 71 | 249 | 5.0 | 11.0 | 0.00 | 0.00 | 0.00 | 47 | 1018.0 |
| 20260831184503 | 71 | 207 | 5.0 | 11.0 | 0.00 | 0.00 | 0.00 | 47 | 1018.0 |
| 20260831184003 | 72 | 234 | 4.0 | 11.0 | 0.00 | 0.00 | 0.00 | 49 | 1018.1 |
| 20260831183502 | 73 | 162 | 5.0 | 11.0 | 0.00 | 0.00 | 0.00 | 48 | 1018.1 |
| 20260831183002 | 73 | 142 | 3.0 | 11.0 | 0.00 | 0.00 | 0.00 | 49 | 1018.2 |
| 20260831182502 | 74 | 123 | 1.0 | 7.0 | 0.00 | 0.00 | 0.00 | 49 | 1018.2 |
| 20260831182002 | 74 | 34 | 3.0 | 8.0 | 0.00 | 0.00 | 0.00 | 47 | 1018.3 |
| 20260831181502 | 74 | 181 | 3.0 | 8.0 | 0.00 | 0.00 | 0.00 | 46 | 1018.2 |
| 20260831181001 | 75 | 142 | 4.0 | 9.0 | 0.00 | 0.00 | 0.00 | 46 | 1018.2 |
| 20260831180501 | 75 | 54 | 3.0 | 9.0 | 0.00 | 0.00 | 0.00 | 44 | 1018.2 |
| 20260831180002 | 75 | 188 | 3.0 | 7.0 | 0.00 | 0.00 | 0.00 | 45 | 1018.1 |
| 20260831175501 | 75 | 42 | 1.0 | 5.0 | 0.00 | 0.00 | 0.00 | 44 | 1018.3 |
| 20260831175001 | 76 | 360 | 2.0 | 5.0 | 0.00 | 0.00 | 0.00 | 44 | 1018.4 |
| 20260831174501 | 76 | 140 | 3.0 | 5.0 | 0.00 | 0.00 | 0.00 | 45 | 1018.4 |
| 20260831174102 | 76 | 155 | 1.0 | 6.0 | 0.00 | 0.00 | 0.00 | 44 | 1018.5 |
| 20260831173603 | 76 | 155 | 4.0 | 7.0 | 0.00 | 0.00 | 0.00 | 44 | 1018.5 |
| 20260831173100 | 77 | 140 | 3.0 | 7.0 | 0.00 | 0.00 | 0.00 | 43 | 1018.5 |
| 20260831172559 | 77 | 209 | 4.0 | 8.0 | 0.00 | 0.00 | 0.00 | 42 | 1018.6 |
| 20260831172059 | 77 | 104 | 3.0 | 8.0 | 0.00 | 0.00 | 0.00 | 43 | 1018.5 |
| 20260831171601 | 77 | 98 | 0.0 | 8.0 | 0.00 | 0.00 | 0.00 | 42 | 1018.5 |
| 20260831171059 | 77 | 88 | 2.0 | 8.0 | 0.00 | 0.00 | 0.00 | 42 | 1018.6 |
| 20260831170557 | 77 | 34 | 2.0 | 4.0 | 0.00 | 0.00 | 0.00 | 43 | 1018.7 |
| 20260831170055 | 76 | 31 | 2.0 | 4.0 | 0.00 | 0.00 | 0.00 | 43 | 1018.8 |
| 20260831165554 | 75 | 58 | 1.0 | 4.0 | 0.00 | 0.00 | 0.00 | 42 | 1018.8 |
| 20260831165053 | 75 | 319 | 1.0 | 6.0 | 0.00 | 0.00 | 0.00 | 43 | 1018.8 |
| 20260831164553 | 75 | 30 | 3.0 | 6.0 | 0.00 | 0.00 | 0.00 | 44 | 1018.9 |
| 20260831164053 | 75 | 355 | 2.0 | 6.0 | 0.00 | 0.00 | 0.00 | 43 | 1019.0 |
| 20260831163551 | 74 | 38 | 2.0 | 6.0 | 0.00 | 0.00 | 0.00 | 48 | 1019.1 |
| 20260831163050 | 74 | 30 | 3.0 | 6.0 | 0.00 | 0.00 | 0.00 | 44 | 1019.0 |
| 20260831162550 | 74 | 5 | 3.0 | 5.0 | 0.00 | 0.00 | 0.00 | 45 | 1019.1 |
| 20260831162050 | 73 | 49 | 3.0 | 6.0 | 0.00 | 0.00 | 0.00 | 46 | 1019.1 |
| 20260831161550 | 72 | 32 | 2.0 | 6.0 | 0.00 | 0.00 | 0.00 | 49 | 1019.1 |
| 20260831161046 | 72 | 338 | 3.0 | 9.0 | 0.00 | 0.00 | 0.00 | 48 | 1019.1 |
| 20260831160545 | 72 | 32 | 2.0 | 9.0 | 0.00 | 0.00 | 0.00 | 49 | 1019.1 |
| 20260831160045 | 72 | 10 | 3.0 | 9.0 | 0.00 | 0.00 | 0.00 | 48 | 1019.0 |
| 20260831155544 | 72 | 355 | 4.0 | 8.0 | 0.00 | 0.00 | 0.00 | 47 | 1019.2 |
| 20260831155043 | 72 | 33 | 2.0 | 6.0 | 0.00 | 0.00 | 0.00 | 49 | 1019.2 |
| 20260831154547 | 72 | 333 | 3.0 | 9.0 | 0.00 | 0.00 | 0.00 | 48 | 1019.3 |
| 20260831154042 | 72 | 22 | 5.0 | 9.0 | 0.00 | 0.00 | 0.00 | 49 | 1019.5 |
| 20260831153640 | 72 | 338 | 4.0 | 8.0 | 0.00 | 0.00 | 0.00 | 52 | 1019.3 |
| 20260831153043 | 71 | 338 | 3.0 | 7.0 | 0.00 | 0.00 | 0.00 | 50 | 1019.5 |
| 20260831152539 | 71 | 22 | 4.0 | 8.0 | 0.00 | 0.00 | 0.00 | 50 | 1019.5 |
| 20260831152038 | 71 | 321 | 3.0 | 8.0 | 0.00 | 0.00 | 0.00 | 49 | 1019.5 |
| 20260831151537 | 71 | 37 | 4.0 | 9.0 | 0.00 | 0.00 | 0.00 | 50 | 1019.5 |
| 20260831151036 | 71 | 342 | 4.0 | 8.0 | 0.00 | 0.00 | 0.00 | 50 | 1019.6 |
| 20260831150535 | 71 | 19 | 3.0 | 8.0 | 0.00 | 0.00 | 0.00 | 50 | 1019.5 |
| 20260831150034 | 71 | 302 | 2.0 | 10.0 | 0.00 | 0.00 | 0.00 | 50 | 1019.6 |
| 20260831145534 | 70 | 346 | 4.0 | 10.0 | 0.00 | 0.00 | 0.00 | 51 | 1019.6 |
| 20260831145031 | 70 | 31 | 4.0 | 9.0 | 0.00 | 0.00 | 0.00 | 52 | 1019.7 |
| 20260831144529 | 69 | 17 | 4.0 | 9.0 | 0.00 | 0.00 | 0.00 | 55 | 1019.7 |
| 20260831144029 | 69 | 15 | 4.0 | 9.0 | 0.00 | 0.00 | 0.00 | 55 | 1019.8 |
| 20260831143531 | 69 | 5 | 5.0 | 9.0 | 0.00 | 0.00 | 0.00 | 55 | 1019.7 |
| 20260831143025 | 69 | 338 | 4.0 | 8.0 | 0.00 | 0.00 | 0.00 | 56 | 1019.7 |
| 20260831142527 | 69 | 5 | 2.0 | 8.0 | 0.00 | 0.00 | 0.00 | 56 | 1019.7 |
| 20260831142023 | 69 | 5 | 5.0 | 8.0 | 0.00 | 0.00 | 0.00 | 56 | 1019.7 |
| 20260831141522 | 69 | 333 | 4.0 | 8.0 | 0.00 | 0.00 | 0.00 | 57 | 1019.9 |
| 20260831141020 | 69 | 340 | 3.0 | 8.0 | 0.00 | 0.00 | 0.00 | 57 | 1019.9 |
| 20260831140519 | 69 | 337 | 4.0 | 10.0 | 0.00 | 0.00 | 0.00 | 58 | 1019.9 |
| 20260831140017 | 69 | 14 | 4.0 | 10.0 | 0.00 | 0.00 | 0.00 | 58 | 1019.9 |
| 20260831135516 | 69 | 336 | 4.0 | 8.0 | 0.00 | 0.00 | 0.00 | 61 | 1019.9 |
| 20260831135015 | 68 | 32 | 2.0 | 6.0 | 0.00 | 0.00 | 0.00 | 63 | 1019.9 |
| 20260831134513 | 68 | 30 | 3.0 | 9.0 | 0.00 | 0.00 | 0.00 | 63 | 1019.9 |
| 20260831134012 | 67 | 319 | 4.0 | 9.0 | 0.00 | 0.00 | 0.00 | 61 | 1019.8 |
| 20260831133510 | 67 | 330 | 2.0 | 8.0 | 0.00 | 0.00 | 0.00 | 65 | 1019.7 |
| 20260831133009 | 67 | 331 | 3.0 | 8.0 | 0.00 | 0.00 | 0.00 | 65 | 1019.6 |
| 20260831132507 | 67 | 335 | 3.0 | 8.0 | 0.00 | 0.00 | 0.00 | 66 | 1019.6 |
| 20260831132006 | 67 | 341 | 4.0 | 8.0 | 0.00 | 0.00 | 0.00 | 68 | 1019.4 |
| 20260831131510 | 66 | 304 | 4.0 | 8.0 | 0.00 | 0.00 | 0.00 | 68 | 1019.4 |
| 20260831131007 | 66 | 335 | 3.0 | 8.0 | 0.00 | 0.00 | 0.00 | 69 | 1019.3 |
| 20260831130501 | 66 | 17 | 3.0 | 9.0 | 0.00 | 0.00 | 0.00 | 71 | 1019.4 |
| 20260831130109 | 65 | 38 | 3.0 | 9.0 | 0.00 | 0.00 | 0.00 | 69 | 1019.5 |
| 20260831125559 | 65 | 5 | 2.0 | 6.0 | 0.00 | 0.00 | 0.00 | 71 | 1019.5 |
| 20260831125058 | 64 | 46 | 3.0 | 8.0 | 0.00 | 0.00 | 0.00 | 72 | 1019.5 |
| 20260831124603 | 64 | 31 | 3.0 | 8.0 | 0.00 | 0.00 | 0.00 | 74 | 1019.4 |
| 20260831124056 | 63 | 27 | 3.0 | 8.0 | 0.00 | 0.00 | 0.00 | 74 | 1019.4 |
| 20260831123552 | 63 | 21 | 3.0 | 8.0 | 0.00 | 0.00 | 0.00 | 75 | 1019.4 |
| 20260831123055 | 63 | 355 | 1.0 | 8.0 | 0.00 | 0.00 | 0.00 | 75 | 1019.3 |
| 20260831122550 | 62 | 342 | 2.0 | 8.0 | 0.00 | 0.00 | 0.00 | 76 | 1019.4 |
| 20260831122049 | 62 | 306 | 3.0 | 7.0 | 0.00 | 0.00 | 0.00 | 77 | 1019.3 |
| 20260831121549 | 61 | 29 | 3.0 | 6.0 | 0.00 | 0.00 | 0.00 | 78 | 1019.2 |
| 20260831121046 | 61 | 360 | 3.0 | 6.0 | 0.00 | 0.00 | 0.00 | 80 | 1019.1 |
| 20260831120545 | 60 | 26 | 3.0 | 8.0 | 0.00 | 0.00 | 0.00 | 81 | 1019.2 |
| 20260831120044 | 60 | 355 | 2.0 | 5.0 | 0.00 | 0.00 | 0.00 | 83 | 1019.2 |
| 20260831115540 | 59 | 303 | 2.0 | 5.0 | 0.00 | 0.00 | 0.00 | 84 | 1019.4 |
| 20260831115039 | 59 | 5 | 2.0 | 7.0 | 0.00 | 0.00 | 0.00 | 84 | 1019.5 |
| 20260831114638 | 58 | 270 | 3.0 | 7.0 | 0.00 | 0.00 | 0.00 | 85 | 1019.3 |
| 20260831114037 | 58 | 296 | 2.0 | 5.0 | 0.00 | 0.00 | 0.00 | 86 | 1019.3 |
| 20260831113536 | 58 | 355 | 1.0 | 5.0 | 0.00 | 0.00 | 0.00 | 86 | 1019.2 |
| 20260831113037 | 57 | 313 | 2.0 | 9.0 | 0.00 | 0.00 | 0.00 | 86 | 1019.3 |
| 20260831112534 | 57 | 298 | 3.0 | 9.0 | 0.00 | 0.00 | 0.00 | 86 | 1019.2 |
| 20260831112032 | 57 | 301 | 2.0 | 4.0 | 0.00 | 0.00 | 0.00 | 86 | 1019.2 |
| 20260831111533 | 57 | 345 | 2.0 | 5.0 | 0.00 | 0.00 | 0.00 | 86 | 1019.0 |
| 20260831111031 | 57 | 312 | 1.0 | 5.0 | 0.00 | 0.00 | 0.00 | 86 | 1019.0 |
| 20260831110532 | 57 | 308 | 2.0 | 8.0 | 0.00 | 0.00 | 0.00 | 86 | 1019.1 |
| 20260831110029 | 57 | 310 | 1.0 | 9.0 | 0.00 | 0.00 | 0.00 | 86 | 1019.0 |
| 20260831105528 | 57 | 290 | 1.0 | 9.0 | 0.00 | 0.00 | 0.00 | 86 | 1018.9 |
| 20260831105028 | 57 | 344 | 3.0 | 7.0 | 0.00 | 0.00 | 0.00 | 86 | 1018.8 |
| 20260831104534 | 57 | 360 | 1.0 | 7.0 | 0.00 | 0.00 | 0.00 | 86 | 1018.8 |
| 20260831104025 | 57 | 288 | 2.0 | 7.0 | 0.00 | 0.00 | 0.00 | 85 | 1018.8 |
| 20260831103525 | 57 | 299 | 3.0 | 7.0 | 0.00 | 0.00 | 0.00 | 85 | 1018.8 |
| 20260831103024 | 57 | 319 | 2.0 | 8.0 | 0.00 | 0.00 | 0.00 | 85 | 1018.7 |
| 20260831102525 | 57 | 330 | 4.0 | 9.0 | 0.00 | 0.00 | 0.00 | 85 | 1018.8 |
| 20260831102023 | 57 | 310 | 4.0 | 9.0 | 0.00 | 0.00 | 0.00 | 85 | 1018.7 |
| 20260831101522 | 58 | 343 | 3.0 | 9.0 | 0.00 | 0.00 | 0.00 | 85 | 1018.6 |
| 20260831101022 | 58 | 349 | 3.0 | 9.0 | 0.00 | 0.00 | 0.00 | 84 | 1018.7 |
| 20260831100520 | 58 | 304 | 3.0 | 10.0 | 0.00 | 0.00 | 0.00 | 84 | 1018.5 |
| 20260831100019 | 58 | 318 | 4.0 | 14.0 | 0.00 | 0.00 | 0.00 | 84 | 1018.5 |
| 20260831095523 | 58 | 313 | 4.0 | 14.0 | 0.00 | 0.00 | 0.00 | 84 | 1018.5 |
| 20260831095020 | 58 | 322 | 5.0 | 12.0 | 0.00 | 0.00 | 0.00 | 84 | 1018.4 |
| 20260831094518 | 58 | 317 | 6.0 | 13.0 | 0.00 | 0.00 | 0.00 | 84 | 1018.5 |
| 20260831094017 | 58 | 327 | 6.0 | 14.0 | 0.00 | 0.00 | 0.00 | 84 | 1018.4 |
| 20260831093517 | 58 | 313 | 5.0 | 15.0 | 0.00 | 0.00 | 0.00 | 84 | 1018.3 |
| 20260831093019 | 58 | 320 | 5.0 | 15.0 | 0.00 | 0.00 | 0.00 | 85 | 1018.3 |
| 20260831092515 | 57 | 327 | 7.0 | 14.0 | 0.00 | 0.00 | 0.00 | 85 | 1018.3 |
| 20260831092015 | 57 | 301 | 5.0 | 12.0 | 0.00 | 0.00 | 0.00 | 85 | 1018.2 |
| 20260831091511 | 57 | 316 | 4.0 | 12.0 | 0.00 | 0.00 | 0.00 | 85 | 1018.1 |
| 20260831091011 | 57 | 289 | 4.0 | 12.0 | 0.00 | 0.00 | 0.00 | 85 | 1018.1 |
| 20260831090510 | 57 | 314 | 4.0 | 9.0 | 0.00 | 0.00 | 0.00 | 85 | 1018.0 |
| 20260831090010 | 57 | 344 | 3.0 | 9.0 | 0.00 | 0.00 | 0.00 | 85 | 1017.9 |
| 20260831085508 | 57 | 290 | 4.0 | 11.0 | 0.00 | 0.00 | 0.00 | 85 | 1017.8 |
| 20260831085008 | 58 | 325 | 4.0 | 11.0 | 0.00 | 0.00 | 0.00 | 85 | 1017.8 |
| 20260831084507 | 58 | 338 | 4.0 | 9.0 | 0.00 | 0.00 | 0.00 | 85 | 1017.7 |
| 20260831084006 | 58 | 308 | 4.0 | 10.0 | 0.00 | 0.00 | 0.00 | 85 | 1017.7 |
| 20260831083504 | 58 | 302 | 4.0 | 10.0 | 0.00 | 0.00 | 0.00 | 85 | 1017.7 |
| 20260831083004 | 58 | 297 | 4.0 | 11.0 | 0.00 | 0.00 | 0.00 | 85 | 1017.6 |
| 20260831082503 | 58 | 333 | 4.0 | 11.0 | 0.00 | 0.00 | 0.00 | 85 | 1017.6 |
| 20260831082003 | 58 | 315 | 3.0 | 8.0 | 0.00 | 0.00 | 0.00 | 85 | 1017.6 |
| 20260831081504 | 58 | 333 | 3.0 | 9.0 | 0.00 | 0.00 | 0.00 | 85 | 1017.5 |
| 20260831081005 | 58 | 351 | 4.0 | 9.0 | 0.00 | 0.00 | 0.00 | 85 | 1017.5 |
| 20260831080502 | 58 | 305 | 4.0 | 10.0 | 0.00 | 0.00 | 0.00 | 85 | 1017.5 |
| 20260831080125 | 58 | 303 | 4.0 | 10.0 | 0.00 | 0.00 | 0.00 | 85 | 1017.5 |
| 20260831075559 | 59 | 327 | 4.0 | 10.0 | 0.00 | 0.00 | 0.00 | 85 | 1017.4 |
| 20260831075100 | 59 | 300 | 2.0 | 10.0 | 0.00 | 0.00 | 0.00 | 85 | 1017.3 |
| 20260831074605 | 59 | 340 | 3.0 | 8.0 | 0.00 | 0.00 | 0.00 | 85 | 1017.3 |
| 20260831074058 | 59 | 334 | 3.0 | 8.0 | 0.00 | 0.00 | 0.00 | 85 | 1017.3 |
| 20260831073558 | 59 | 17 | 3.0 | 8.0 | 0.00 | 0.00 | 0.00 | 85 | 1017.4 |
| 20260831073058 | 59 | 314 | 2.0 | 6.0 | 0.00 | 0.00 | 0.00 | 85 | 1017.3 |
| 20260831072555 | 59 | 342 | 2.0 | 9.0 | 0.00 | 0.00 | 0.00 | 85 | 1017.3 |
| 20260831072058 | 59 | 314 | 4.0 | 10.0 | 0.00 | 0.00 | 0.00 | 84 | 1017.2 |
| 20260831071606 | 59 | 298 | 3.0 | 11.0 | 0.00 | 0.00 | 0.00 | 84 | 1017.1 |
| 20260831071053 | 59 | 315 | 6.0 | 12.0 | 0.00 | 0.00 | 0.00 | 84 | 1017.0 |
| 20260831070553 | 60 | 298 | 6.0 | 14.0 | 0.00 | 0.00 | 0.00 | 84 | 1017.0 |
| 20260831070052 | 60 | 5 | 4.0 | 14.0 | 0.00 | 0.00 | 0.00 | 84 | 1017.0 |
| 20260831065552 | 60 | 296 | 5.0 | 15.0 | 0.00 | 0.00 | 0.00 | 84 | 1017.0 |
| 20260831065052 | 60 | 5 | 3.0 | 15.0 | 0.00 | 0.00 | 0.00 | 84 | 1016.9 |
| 20260831064550 | 60 | 313 | 5.0 | 11.0 | 0.00 | 0.00 | 0.00 | 84 | 1017.1 |
| 20260831064050 | 60 | 283 | 6.0 | 13.0 | 0.00 | 0.00 | 0.00 | 84 | 1016.9 |
| 20260831063550 | 60 | 313 | 5.0 | 14.0 | 0.00 | 0.00 | 0.00 | 84 | 1017.1 |
| 20260831063048 | 60 | 300 | 5.0 | 15.0 | 0.00 | 0.00 | 0.00 | 84 | 1017.0 |
| 20260831062551 | 60 | 343 | 4.0 | 15.0 | 0.00 | 0.00 | 0.00 | 85 | 1016.9 |
| 20260831062047 | 60 | 305 | 7.0 | 14.0 | 0.00 | 0.00 | 0.00 | 85 | 1016.9 |
| 20260831061547 | 60 | 336 | 5.0 | 12.0 | 0.00 | 0.00 | 0.00 | 85 | 1016.8 |
| 20260831061046 | 60 | 298 | 6.0 | 13.0 | 0.00 | 0.00 | 0.00 | 85 | 1016.8 |
| 20260831060545 | 60 | 326 | 4.0 | 11.0 | 0.00 | 0.00 | 0.00 | 85 | 1016.7 |
| 20260831060058 | 60 | 324 | 5.0 | 11.0 | 0.00 | 0.00 | 0.00 | 85 | 1016.7 |
| 20260831055544 | 60 | 340 | 4.0 | 10.0 | 0.00 | 0.00 | 0.00 | 85 | 1016.7 |
| 20260831055043 | 60 | 312 | 3.0 | 10.0 | 0.00 | 0.00 | 0.00 | 85 | 1016.8 |
| 20260831054543 | 60 | 319 | 4.0 | 10.0 | 0.00 | 0.00 | 0.00 | 85 | 1016.8 |
| 20260831054042 | 61 | 313 | 4.0 | 10.0 | 0.00 | 0.00 | 0.00 | 85 | 1016.7 |
| 20260831053541 | 61 | 330 | 3.0 | 13.0 | 0.00 | 0.00 | 0.00 | 85 | 1016.6 |
| 20260831053046 | 61 | 327 | 4.0 | 13.0 | 0.00 | 0.00 | 0.00 | 85 | 1016.6 |
| 20260831052540 | 61 | 321 | 4.0 | 13.0 | 0.00 | 0.00 | 0.00 | 85 | 1016.5 |
| 20260831052039 | 61 | 341 | 6.0 | 13.0 | 0.00 | 0.00 | 0.00 | 84 | 1016.6 |
| 20260831051542 | 61 | 319 | 3.0 | 9.0 | 0.00 | 0.00 | 0.00 | 84 | 1016.4 |
| 20260831051038 | 61 | 301 | 4.0 | 9.0 | 0.00 | 0.00 | 0.00 | 84 | 1016.3 |
| 20260831050540 | 61 | 309 | 2.0 | 5.0 | 0.00 | 0.00 | 0.00 | 84 | 1016.4 |
| 20260831050052 | 61 | 317 | 2.0 | 5.0 | 0.00 | 0.00 | 0.00 | 84 | 1016.4 |
| 20260831045537 | 61 | 309 | 1.0 | 3.0 | 0.00 | 0.00 | 0.00 | 83 | 1016.3 |
| 20260831045036 | 61 | 314 | 1.0 | 5.0 | 0.00 | 0.00 | 0.00 | 83 | 1016.2 |
| 20260831044535 | 61 | 314 | 1.0 | 5.0 | 0.00 | 0.00 | 0.00 | 83 | 1016.3 |
| 20260831044034 | 62 | 326 | 1.0 | 4.0 | 0.00 | 0.00 | 0.00 | 82 | 1016.2 |
| 20260831043533 | 62 | 330 | 0.0 | 3.0 | 0.00 | 0.00 | 0.00 | 82 | 1016.2 |
| 20260831043041 | 62 | 330 | 0.0 | 3.0 | 0.00 | 0.00 | 0.00 | 82 | 1016.1 |
| 20260831042533 | 62 | 312 | 1.0 | 5.0 | 0.00 | 0.00 | 0.00 | 82 | 1016.1 |
| 20260831042036 | 62 | 304 | 1.0 | 5.0 | 0.00 | 0.00 | 0.00 | 82 | 1016.2 |
| 20260831041541 | 62 | 339 | 2.0 | 6.0 | 0.00 | 0.00 | 0.00 | 82 | 1016.2 |
| 20260831041033 | 62 | 309 | 1.0 | 10.0 | 0.00 | 0.00 | 0.00 | 82 | 1016.1 |